Location: Unspecified
(0.0000°N, 0.0000°E)
Time: 08:14:49
(UTC+00:00)

Altair 2 - Pass Details

Date: 04 November 2024
Orbit: 1016 x 1126 km, 90.0° (Epoch: 15 December)

Event Time Altitude Azimuth Distance (km) Brightness Sun altitude
Exits shadow 02:59:20 31° 166° (SSE) 1,855 10.1 -39.3°
Drops below altitude 10° 03:02:39 10° 175° (S) 2,973 11.2 -38.5°
Enters shadow 04:24:17 -24° 350° (N) 7,228 12.8 -19.1°
